[[{"header":{"parameterUnit":"m.s-1","parameterCategory":1,"la1":30.2991,"la2":30.254,"lo1":-89.0895,"lo2":-89.0444,"dy":0.0017,"dx":0.0017,"nx":28,"ny":28,"refTime":"2024-10-19T09:00:00:Z","depth":0,"parameterNumber":2,"parameterNumberName":"U-component_of_WINDS"},"data":[0,0,0,0,0,0,0,0,0,0,0,0,0,0,0,0,0,0,0,0,0,0,0,0,0,0,0,0,0,0,0,0,0,0,0,0,0,0,0,0,0,0,0,0,0,0,0,0,0,0,0,0,0,0,0,0,0,0,-4.5779,-4.5779,0,-4.5831,-4.5832,-4.5832,-4.567,-4.5665,-4.566,-4.5656,-4.5711,-4.5717,-4.5723,0,0,0,0,0,0,0,0,0,0,0,0,0,-4.5539,-4.5545,-4.5779,-4.5779,-4.578,-4.5831,-4.5832,-4.5833,-4.5671,-4.5665,-4.5659,-4.5654,-4.5709,-4.5716,-4.5723,0,0,0,0,0,0,0,0,0,0,0,0,0,-4.5623,-4.5546,-4.5779,-4.5706,-4.57,-4.5831,-4.5832,-4.5833,-4.5673,-4.5665,-4.5658,-4.5651,-4.5707,-4.5715,-4.5724,-4.5929,0,0,-4.5752,-4.5756,0,0,0,0,0,0,0,0,-4.5618,-4.5632,-4.5716,-4.5711,-4.5704,-4.5737,-4.5767,-4.5865,-4.5674,-4.5683,-4.5656,-4.5647,-4.5726,-4.5733,-4.5759,-4.5932,-4.5934,-4.5753,-4.5759,-4.5763,-4.5765,0,0,0,0,0,0,0,-4.5613,-4.5629,-4.5799,-4.5717,-4.571,-4.567,-4.5674,-4.5785,-4.5745,-4.5682,-4.567,-4.5678,-4.5721,-4.5751,-4.5759,-4.5935,-4.5753,-4.5761,-4.5767,-4.577,-4.6279,-4.6286,0,0,0,0,0,0,-4.5616,-4.5625,-4.5798,-4.5801,-4.5642,-4.5681,-4.5685,-4.5734,-4.5744,-4.5738,-4.5685,-4.5671,-4.5739,-4.5749,-4.576,-4.6002,-4.5762,-4.5771,-4.5776,-4.6271,-4.6281,-4.6289,0,0,0,0,0,0,-4.5612,-4.5633,-4.5796,-4.571,-4.5727,-4.5693,-4.5749,-4.5739,-4.5768,-4.5746,-4.5738,-4.5722,-4.5733,-4.5747,-4.5888,-4.6001,-4.5775,-4.5783,-4.6261,-4.6274,-4.6285,-4.6486,0,0,0,0,0,0,-4.5606,-4.5633,-4.571,-4.5713,-4.5733,-4.5924,-4.5756,-4.5745,-4.5784,-4.5766,-4.5779,-4.5774,-4.5728,-4.5876,-4.5898,-4.601,-4.5791,-4.6251,-4.6267,-4.6281,-4.6469,-4.6503,-4.6533,0,0,0,0,0,-4.5598,-4.5765,-4.5715,-4.5737,-4.5829,-4.593,-4.5942,-4.5886,-4.5794,-4.5872,-4.5857,-4.5773,-4.5985,-4.5892,-4.5915,-4.6031,-4.6244,-4.6262,-4.628,-4.6455,-4.6497,-4.6532,0,0,0,0,0,0,-4.5777,-4.5764,-4.5708,-4.5881,-4.5908,-4.5903,-4.5999,-4.5932,-4.5985,-4.5967,-4.5895,-4.5899,-4.6054,-4.6055,-4.5952,-4.623,-4.6098,-4.6122,-4.6224,-4.6263,-4.6294,-4.6292,-4.5798,0,0,0,0,0,-4.5836,-4.592,-4.5904,-4.6058,-4.6074,-4.6035,-4.6077,-4.6031,-4.6056,-4.6067,-4.6063,-4.6091,-4.6163,-4.6213,-4.6278,-4.6467,-4.6469,-4.6559,-4.6591,-4.6617,-4.6639,-4.674,-4.6781,-4.6349,-4.6348,-4.6348,0,0,-4.5961,-4.5964,-4.6021,-4.6094,-4.6109,-4.6198,-4.6046,-4.6145,-4.621,-4.6082,-4.6215,-4.6213,-4.6239,-4.6406,-4.6479,-4.6413,-4.6758,-4.664,-4.6661,-4.6669,-4.6763,-4.6804,-4.6841,-4.6361,-4.6359,-4.6357,0,0,-4.6233,-4.6243,-4.6373,-4.6391,-4.6416,-4.6389,-4.642,-4.6425,-4.6419,-4.6551,-4.6457,-4.6533,-4.6659,-4.6682,-4.671,-4.699,-4.6916,-4.7013,-4.718,-4.728,-4.7314,-4.7344,-4.7445,-4.7483,-4.7034,-4.7035,-4.7035,0,-4.6384,-4.6514,-4.6448,-4.6555,-4.659,-4.6477,-4.6609,-4.6629,-4.6675,-4.6702,-4.6627,-4.6783,-4.6792,-4.6963,-4.7032,-4.7058,-4.7092,-4.7013,-4.7314,-4.7343,-4.737,-4.7467,-4.7505,-4.7047,-4.7045,-4.7044,-4.7043,0,-4.6699,-4.679,-4.6892,-4.6939,-4.6985,-4.7104,-4.7057,-4.7112,-4.7062,-4.7043,-4.7179,-4.7186,-4.7251,-4.7288,-4.724,-4.7453,-4.7411,-4.7326,-4.7193,-4.7425,-4.7514,-4.755,-4.7064,-4.706,-4.7056,-4.7053,0,0,-4.7088,-4.7096,-4.7135,-4.7155,-4.7174,-4.7243,-4.7356,-4.742,-4.7469,-4.7503,-4.7598,-4.7707,-4.7628,-4.766,-4.7614,-4.7701,-4.7924,-4.7605,-4.7605,-4.7666,-4.816,-4.8226,-4.827,-4.7874,-4.788,-4.7886,-4.8159,0,-4.7357,-4.7552,-4.7496,-4.7691,-4.7775,-4.7668,-4.7766,-4.7789,-4.7774,-4.7843,-4.7825,-4.7904,-4.7794,-4.7813,-4.7894,-4.788,-4.8023,-4.7859,-4.7962,-4.7967,-4.7962,-4.8316,-4.8385,-4.8643,-4.8193,-4.8199,-4.8203,0,-4.7698,-4.7746,-4.795,-4.7955,-4.7988,-4.8078,-4.8132,-4.8198,-4.8221,-4.8204,-4.824,-4.8175,-4.8287,-4.8152,-4.8305,-4.8195,-4.8233,-4.8233,-4.8241,-4.8251,-4.8101,-4.8337,-4.8723,-4.8764,-4.8257,-4.8253,-4.8249,0,-4.7964,-4.8079,-4.8216,-4.8236,-4.8245,-4.8311,-4.8318,-4.8333,-4.8375,-4.8421,-4.8448,-4.8507,-4.8541,-4.8588,-4.8541,-4.8447,-4.8703,-4.8563,-4.8693,-4.8695,-4.8754,-4.8752,-4.9155,-4.8775,-4.8775,-4.8774,-4.8773,0,-4.8272,-4.8401,-4.8336,-4.8421,-4.8562,-4.8496,-4.8638,-4.8633,-4.8647,-4.8729,-4.8639,-4.8718,-4.865,-4.8723,-4.8687,-4.8821,-4.8836,-4.8826,-4.8815,-4.8836,-4.8837,-4.8862,-4.8844,-4.8784,-4.8782,-4.878,-4.8778,0,-4.8594,-4.8555,-4.8698,-4.8694,-4.8696,-4.8801,-4.8797,-4.8876,-4.8853,-4.8958,-4.8978,-4.8944,-4.9025,-4.8982,-4.9066,-4.9041,-4.9215,-4.9179,-4.9208,-4.9199,-4.9332,-4.9322,-4.9767,-4.9823,-4.9406,-4.941,-4.9413,0,-4.8795,-4.8892,-4.8898,-4.8946,-4.8959,-4.9038,-4.908,-4.9018,-4.9066,-4.9099,-4.9174,-4.9247,-4.9303,-4.9437,-4.942,-4.9483,-4.9449,-4.9601,-4.9459,-4.9476,-4.9454,-4.945,-4.946,-4.9631,-4.9636,-4.964,-4.9643,0,-4.9156,-4.9131,-4.9195,-4.9253,-4.9306,-4.9348,-4.9383,-4.9428,-4.9366,-4.9424,-4.9506,-4.9549,-4.9634,-4.9709,-4.9764,-4.977,-4.9698,-4.9688,-4.9721,-4.9745,-4.9758,-4.9755,-4.9289,-4.9678,-4.9675,-4.9672,-4.967,-4.9669,-4.9424,-4.9506,-4.9523,-4.9598,-4.9617,-4.9652,-4.9726,-4.9712,-4.9779,-4.9843,-4.9802,-4.9899,-4.9919,-4.9985,-5.0001,-5.0076,-5.0015,-5.0064,-5.0077,-5.0091,-5.011,-4.9744,-5.0085,-5.0084,-5.0083,-5.0082,-5.0082,0,-4.9782,-4.9788,-4.9857,-4.9908,-4.9967,-4.9892,-4.9926,-4.9981,-5.0067,-5.0091,-5.0148,-5.0242,-5.0313,-5.0301,-5.0366,-5.0428,-5.0397,-5.0448,-5.0444,-5.0447,-5.0159,-5.0124,-5.0472,-5.0472,-5.0472,-5.0472,-5.0472,-5.0472,-4.9976,-5.011,-5.0088,-5.0231,-5.0235,-5.0329,-5.0356,-5.0388,-5.0407,-5.0516,-5.0575,-5.0566,-5.0576,-5.0641,-5.0703,-5.0697,-5.0726,-5.0791,-5.0773,-5.0505,-5.0467,-5.043,-5.0397,-5.0797,-5.0797,-5.1055,-5.1057,-5.1059]},{"header":{"parameterUnit":"m.s-1","parameterCategory":1,"la1":30.2991,"la2":30.254,"lo1":-89.0895,"lo2":-89.0444,"dy":0.0017,"dx":0.0017,"nx":28,"ny":28,"refTime":"2024-10-19T09:00:00:Z","depth":0,"parameterNumber":3,"parameterNumberName":"V-component_of_WINDS"},"data":[0,0,0,0,0,0,0,0,0,0,0,0,0,0,0,0,0,0,0,0,0,0,0,0,0,0,0,0,0,0,0,0,0,0,0,0,0,0,0,0,0,0,0,0,0,0,0,0,0,0,0,0,0,0,0,0,0,0,-4.7516,-4.7516,0,-4.7517,-4.7517,-4.7517,-4.7445,-4.7443,-4.7441,-4.7439,-4.744,-4.7442,-4.7444,0,0,0,0,0,0,0,0,0,0,0,0,0,-4.7449,-4.7451,-4.7516,-4.7516,-4.7516,-4.7517,-4.7517,-4.7517,-4.7445,-4.7443,-4.744,-4.7438,-4.744,-4.7442,-4.7444,0,0,0,0,0,0,0,0,0,0,0,0,0,-4.7467,-4.7451,-4.7516,-4.748,-4.7477,-4.7517,-4.7517,-4.7517,-4.7445,-4.7443,-4.744,-4.7437,-4.7439,-4.7441,-4.7444,-4.7519,0,0,-4.7453,-4.7454,0,0,0,0,0,0,0,0,-4.7466,-4.747,-4.7485,-4.7483,-4.7479,-4.7478,-4.7494,-4.7518,-4.7446,-4.7457,-4.7439,-4.7436,-4.7455,-4.7456,-4.7463,-4.7519,-4.7519,-4.7453,-4.7454,-4.7456,-4.7456,0,0,0,0,0,0,0,-4.7465,-4.7469,-4.7516,-4.7486,-4.7482,-4.7463,-4.7463,-4.7498,-4.7472,-4.7456,-4.7451,-4.7452,-4.7453,-4.746,-4.7462,-4.7519,-4.7453,-4.7455,-4.7457,-4.7458,-4.7633,-4.7636,0,0,0,0,0,0,-4.7469,-4.7469,-4.7516,-4.7516,-4.7465,-4.7467,-4.7466,-4.7481,-4.7472,-4.7468,-4.7455,-4.7449,-4.7457,-4.7459,-4.7462,-4.7546,-4.7456,-4.7458,-4.746,-4.763,-4.7634,-4.7637,0,0,0,0,0,0,-4.7468,-4.7474,-4.7516,-4.7491,-4.7495,-4.7471,-4.7488,-4.7483,-4.749,-4.7471,-4.7465,-4.7467,-4.7455,-4.7458,-4.7504,-4.7545,-4.7459,-4.7462,-4.7627,-4.7631,-4.7635,-4.7717,0,0,0,0,0,0,-4.7466,-4.7474,-4.7503,-4.7492,-4.7497,-4.756,-4.7491,-4.7485,-4.7495,-4.7487,-4.7481,-4.7477,-4.7453,-4.7501,-4.7507,-4.7548,-4.7464,-4.7623,-4.7629,-4.7634,-4.7711,-4.7724,-4.7735,0,0,0,0,0,-4.7464,-4.7526,-4.7504,-4.7511,-4.7532,-4.7562,-4.7564,-4.7535,-4.7499,-4.7527,-4.7514,-4.7477,-4.754,-4.7506,-4.7513,-4.7555,-4.762,-4.7627,-4.7633,-4.7705,-4.7722,-4.7735,0,0,0,0,0,0,-4.7543,-4.7524,-4.75,-4.7561,-4.7563,-4.755,-4.7584,-4.7554,-4.7567,-4.7559,-4.7523,-4.7522,-4.7573,-4.7569,-4.7531,-4.7625,-4.7573,-4.7582,-4.7626,-4.7641,-4.7653,-4.7652,-4.7466,0,0,0,0,0,-4.7567,-4.7593,-4.7576,-4.7631,-4.7634,-4.7609,-4.7621,-4.7598,-4.7599,-4.76,-4.7591,-4.7593,-4.7613,-4.7627,-4.7645,-4.771,-4.7706,-4.7742,-4.7754,-4.7765,-4.7772,-4.7804,-4.7819,-4.7659,-4.7659,-4.7659,0,0,-4.7618,-4.7611,-4.763,-4.7647,-4.7646,-4.7673,-4.761,-4.7642,-4.7661,-4.7605,-4.7647,-4.7641,-4.7641,-4.7696,-4.772,-4.7694,-4.7815,-4.7773,-4.7782,-4.7783,-4.7812,-4.7827,-4.7841,-4.7664,-4.7663,-4.7662,0,0,-4.7724,-4.7722,-4.7766,-4.7767,-4.7766,-4.7749,-4.776,-4.775,-4.7743,-4.7785,-4.7743,-4.7765,-4.7801,-4.7802,-4.7807,-4.7911,-4.7877,-4.7918,-4.7982,-4.8013,-4.8026,-4.8037,-4.8071,-4.8085,-4.7926,-4.7926,-4.7926,0,-4.7787,-4.7826,-4.7793,-4.7827,-4.7835,-4.7784,-4.7828,-4.783,-4.7836,-4.7841,-4.7812,-4.7854,-4.7851,-4.7905,-4.793,-4.7937,-4.7947,-4.7918,-4.8027,-4.8037,-4.8047,-4.808,-4.8093,-4.7931,-4.793,-4.793,-4.7929,0,-4.7902,-4.793,-4.7966,-4.7971,-4.7983,-4.8022,-4.7994,-4.801,-4.7986,-4.7971,-4.8014,-4.8008,-4.8022,-4.8034,-4.8011,-4.8084,-4.8067,-4.8033,-4.798,-4.8067,-4.8097,-4.811,-4.7937,-4.7936,-4.7934,-4.7933,0,0,-4.8058,-4.8043,-4.8057,-4.8057,-4.8052,-4.8072,-4.8108,-4.8121,-4.8135,-4.814,-4.8168,-4.8199,-4.8166,-4.8172,-4.8149,-4.8177,-4.8257,-4.8139,-4.8138,-4.8159,-4.8334,-4.8358,-4.8373,-4.8235,-4.8237,-4.8239,-4.8333,0,-4.8158,-4.8218,-4.8189,-4.8252,-4.8276,-4.8227,-4.8258,-4.8258,-4.8245,-4.8263,-4.8249,-4.827,-4.8227,-4.823,-4.8256,-4.8242,-4.8291,-4.8235,-4.8259,-4.826,-4.8259,-4.839,-4.8416,-4.8505,-4.8345,-4.8347,-4.8348,0,-4.8284,-4.8292,-4.8358,-4.8345,-4.8354,-4.8383,-4.8391,-4.8409,-4.8407,-4.8396,-4.8402,-4.8372,-4.8405,-4.8354,-4.8398,-4.836,-4.8368,-4.8363,-4.8366,-4.8365,-4.8308,-4.8391,-4.8533,-4.8546,-4.8367,-4.8366,-4.8364,0,-4.8388,-4.8416,-4.8458,-4.846,-4.8448,-4.8468,-4.8464,-4.8459,-4.8468,-4.8476,-4.8481,-4.8493,-4.8499,-4.8509,-4.8482,-4.8448,-4.8529,-4.8477,-4.852,-4.852,-4.8538,-4.8537,-4.8681,-4.8547,-4.8547,-4.8546,-4.8546,0,-4.8502,-4.8543,-4.8504,-4.853,-4.8574,-4.8539,-4.8584,-4.8574,-4.857,-4.8592,-4.8552,-4.8574,-4.8538,-4.8556,-4.8536,-4.8574,-4.8578,-4.8569,-4.8562,-4.8571,-4.8572,-4.8575,-4.8567,-4.855,-4.8549,-4.8548,-4.8548,0,-4.8626,-4.8601,-4.8643,-4.8627,-4.8624,-4.8657,-4.8643,-4.8665,-4.8649,-4.8678,-4.8682,-4.8658,-4.8676,-4.8651,-4.8668,-4.8654,-4.8706,-4.8691,-4.8706,-4.8701,-4.8745,-4.874,-4.8895,-4.8912,-4.8769,-4.877,-4.8771,0,-4.8699,-4.8729,-4.8716,-4.8727,-4.8725,-4.8745,-4.8753,-4.872,-4.8731,-4.8729,-4.8752,-4.8767,-4.8777,-4.8809,-4.8793,-4.8805,-4.8789,-4.8842,-4.879,-4.8797,-4.8787,-4.8785,-4.8786,-4.8852,-4.8854,-4.8855,-4.8857,0,-4.8832,-4.8817,-4.8831,-4.884,-4.885,-4.8856,-4.8859,-4.8871,-4.8836,-4.885,-4.8868,-4.8876,-4.8892,-4.8907,-4.8914,-4.8909,-4.8877,-4.8873,-4.8883,-4.8892,-4.8898,-4.8893,-4.8733,-4.8869,-4.8868,-4.8867,-4.8866,-4.8866,-4.8931,-4.8954,-4.8947,-4.8963,-4.8961,-4.8964,-4.8983,-4.8969,-4.8984,-4.8993,-4.8973,-4.8996,-4.8991,-4.8998,-4.8996,-4.9013,-4.899,-4.9005,-4.9009,-4.9013,-4.9018,-4.8897,-4.9015,-4.9014,-4.9014,-4.9014,-4.9013,0,-4.9059,-4.9052,-4.9067,-4.907,-4.9082,-4.905,-4.9051,-4.9063,-4.9083,-4.9081,-4.9092,-4.9111,-4.9125,-4.9109,-4.912,-4.9137,-4.9122,-4.914,-4.9138,-4.9137,-4.904,-4.9029,-4.9152,-4.9152,-4.9152,-4.9152,-4.9152,-4.9152,-4.9127,-4.9164,-4.9149,-4.9184,-4.9176,-4.9197,-4.92,-4.9202,-4.92,-4.9223,-4.9234,-4.9223,-4.9215,-4.9225,-4.9236,-4.9231,-4.9236,-4.9259,-4.9249,-4.9158,-4.9144,-4.9131,-4.912,-4.9261,-4.9261,-4.9344,-4.9345,-4.9345]}]]